| time (UTC) | temp F | wind direction | speed MPH | gust MPH | rain 1hr in | rain 24hr in | rain mn in | humidity % | barometer mb |
| 20260509061520 | 59 | 0.0 | 0.0 | 0.00 | 0.04 | 0.00 | 51 | 1013.4 | |
| 20260509060539 | 59 | 0.0 | 2.0 | 0.00 | 0.04 | 0.00 | 50 | 1013.5 | |
| 20260509055519 | 58 | 0.0 | 4.0 | 0.00 | 0.04 | 0.04 | 52 | 1013.4 | |
| 20260509054540 | 57 | 0.0 | 2.0 | 0.00 | 0.04 | 0.04 | 57 | 1013.2 | |
| 20260509053559 | 56 | 0.0 | 1.0 | 0.00 | 0.04 | 0.04 | 60 | 1013.0 | |
| 20260509052519 | 56 | 0.0 | 0.0 | 0.00 | 0.04 | 0.04 | 59 | 1013.1 | |
| 20260509051519 | 56 | 0.0 | 0.0 | 0.00 | 0.04 | 0.04 | 59 | 1013.2 | |
| 20260509050519 | 56 | 0.0 | 0.0 | 0.00 | 0.04 | 0.04 | 58 | 1013.0 | |
| 20260509045519 | 57 | 0.0 | 0.0 | 0.00 | 0.04 | 0.04 | 56 | 1013.1 | |
| 20260509044520 | 57 | 0.0 | 0.0 | 0.00 | 0.04 | 0.04 | 56 | 1013.1 | |
| 20260509043519 | 57 | 0.0 | 1.0 | 0.00 | 0.04 | 0.04 | 55 | 1012.6 | |
| 20260509042539 | 57 | 0.0 | 1.0 | 0.00 | 0.04 | 0.04 | 55 | 1012.7 | |
| 20260509041519 | 57 | 0.0 | 0.0 | 0.00 | 0.04 | 0.04 | 56 | 1012.7 | |
| 20260509040519 | 58 | 0.0 | 0.0 | 0.00 | 0.04 | 0.04 | 55 | 1012.6 | |
| 20260509035519 | 58 | 0.0 | 0.0 | 0.00 | 0.04 | 0.04 | 54 | 1012.5 | |
| 20260509034520 | 59 | 0.0 | 0.0 | 0.00 | 0.04 | 0.04 | 53 | 1012.4 | |
| 20260509033519 | 59 | 0.0 | 0.0 | 0.00 | 0.04 | 0.04 | 52 | 1011.8 | |
| 20260509032519 | 60 | 0.0 | 0.0 | 0.00 | 0.04 | 0.04 | 50 | 1012.0 | |
| 20260509031519 | 61 | 0.0 | 1.0 | 0.00 | 0.04 | 0.04 | 49 | 1012.0 | |
| 20260509030519 | 61 | 0.0 | 1.0 | 0.00 | 0.04 | 0.04 | 47 | 1011.4 | |
| 20260509025539 | 62 | 0.0 | 1.0 | 0.00 | 0.04 | 0.04 | 46 | 1011.9 | |
| 20260509024519 | 62 | 0.0 | 1.0 | 0.00 | 0.04 | 0.04 | 45 | 1011.9 | |
| 20260509023519 | 63 | 0.0 | 0.0 | 0.00 | 0.04 | 0.04 | 44 | 1012.0 | |
| 20260509022519 | 64 | 0.0 | 1.0 | 0.00 | 0.04 | 0.04 | 43 | 1012.2 | |
| 20260509021519 | 64 | 0.0 | 2.0 | 0.00 | 0.04 | 0.04 | 42 | 1012.2 | |
| 20260509020520 | 65 | 0.0 | 0.0 | 0.00 | 0.04 | 0.04 | 41 | 1011.4 | |
| 20260509015520 | 65 | 0.0 | 1.0 | 0.00 | 0.04 | 0.04 | 40 | 1011.3 | |
| 20260509014519 | 66 | 0.0 | 3.0 | 0.00 | 0.04 | 0.04 | 39 | 1011.6 | |
| 20260509013519 | 66 | 225 | 1.0 | 5.0 | 0.00 | 0.04 | 0.04 | 38 | 1011.1 |
| 20260509012519 | 67 | 135 | 1.0 | 4.0 | 0.00 | 0.04 | 0.04 | 37 | 1011.1 |
| 20260509011519 | 67 | 0.0 | 1.0 | 0.00 | 0.04 | 0.04 | 36 | 1011.1 | |
| 20260509010519 | 67 | 0.0 | 3.0 | 0.00 | 0.04 | 0.04 | 36 | 1011.1 | |
| 20260509005519 | 68 | 0.0 | 4.0 | 0.00 | 0.04 | 0.04 | 35 | 1011.2 | |
| 20260509004519 | 68 | 180 | 1.0 | 6.0 | 0.00 | 0.04 | 0.04 | 34 | 1011.4 |
| 20260509003539 | 69 | 135 | 1.0 | 4.0 | 0.00 | 0.04 | 0.04 | 34 | 1011.4 |
| 20260509002519 | 68 | 0.0 | 3.0 | 0.00 | 0.04 | 0.04 | 34 | 1011.4 | |
| 20260509001519 | 68 | 135 | 1.0 | 5.0 | 0.00 | 0.04 | 0.04 | 33 | 1011.3 |
| 20260509000519 | 68 | 180 | 1.0 | 3.0 | 0.00 | 0.04 | 0.04 | 33 | 1011.3 |
| 20260508235519 | 68 | 135 | 1.0 | 3.0 | 0.00 | 0.04 | 0.04 | 33 | 1011.4 |
| 20260508234519 | 68 | 135 | 2.0 | 4.0 | 0.00 | 0.04 | 0.04 | 33 | 1011.5 |
| 20260508233519 | 68 | 203 | 1.0 | 6.0 | 0.00 | 0.04 | 0.04 | 34 | 1011.5 |
| 20260508232519 | 69 | 0.0 | 2.0 | 0.00 | 0.04 | 0.04 | 33 | 1011.6 | |
| 20260508231519 | 69 | 0.0 | 0.0 | 0.00 | 0.04 | 0.04 | 35 | 1011.5 | |
| 20260508230519 | 69 | 158 | 1.0 | 3.0 | 0.00 | 0.04 | 0.04 | 33 | 1011.5 |
| 20260508225519 | 69 | 158 | 1.0 | 4.0 | 0.00 | 0.04 | 0.04 | 33 | 1011.5 |
| 20260508224539 | 70 | 135 | 1.0 | 6.0 | 0.00 | 0.04 | 0.04 | 34 | 1011.8 |
| 20260508223519 | 70 | 158 | 1.0 | 3.0 | 0.00 | 0.04 | 0.04 | 33 | 1011.9 |
| 20260508222519 | 70 | 113 | 1.0 | 2.0 | 0.00 | 0.04 | 0.04 | 33 | 1011.9 |
| 20260508221519 | 70 | 135 | 3.0 | 6.0 | 0.00 | 0.04 | 0.04 | 32 | 1011.8 |
| 20260508220519 | 71 | 158 | 2.0 | 4.0 | 0.00 | 0.04 | 0.04 | 34 | 1012.4 |
| 20260508215518 | 71 | 180 | 2.0 | 5.0 | 0.00 | 0.04 | 0.04 | 32 | 1012.4 |
| 20260508214518 | 72 | 315 | 1.0 | 2.0 | 0.00 | 0.04 | 0.04 | 34 | 1012.9 |
| 20260508213538 | 72 | 0.0 | 1.0 | 0.00 | 0.04 | 0.04 | 31 | 1012.9 | |
| 20260508212518 | 72 | 315 | 1.0 | 2.0 | 0.00 | 0.04 | 0.04 | 31 | 1012.9 |
| 20260508211539 | 72 | 315 | 1.0 | 2.0 | 0.00 | 0.04 | 0.04 | 31 | 1012.9 |
| 20260508210519 | 72 | 315 | 1.0 | 3.0 | 0.00 | 0.04 | 0.04 | 31 | 1012.7 |
| 20260508205518 | 72 | 0.0 | 2.0 | 0.00 | 0.04 | 0.04 | 32 | 1012.8 | |
| 20260508204518 | 74 | 0.0 | 2.0 | 0.00 | 0.04 | 0.04 | 30 | 1013.2 | |
| 20260508203519 | 73 | 315 | 1.0 | 2.0 | 0.00 | 0.04 | 0.04 | 31 | 1013.3 |
| 20260508202519 | 71 | 158 | 1.0 | 4.0 | 0.00 | 0.04 | 0.04 | 32 | 1012.9 |
| 20260508201519 | 72 | 315 | 1.0 | 3.0 | 0.00 | 0.04 | 0.04 | 32 | 1013.4 |
| 20260508200519 | 71 | 158 | 1.0 | 3.0 | 0.00 | 0.04 | 0.04 | 36 | 1013.6 |
| 20260508195519 | 70 | 180 | 2.0 | 5.0 | 0.00 | 0.04 | 0.04 | 36 | 1013.4 |
| 20260508194538 | 69 | 135 | 2.0 | 4.0 | 0.00 | 0.04 | 0.04 | 36 | 1013.4 |
| 20260508193518 | 69 | 135 | 1.0 | 2.0 | 0.00 | 0.04 | 0.04 | 41 | 1014.1 |
| 20260508192518 | 70 | 0.0 | 2.0 | 0.00 | 0.04 | 0.04 | 40 | 1014.3 | |
| 20260508191518 | 70 | 135 | 1.0 | 2.0 | 0.00 | 0.04 | 0.04 | 38 | 1014.4 |
| 20260508190518 | 71 | 0.0 | 4.0 | 0.00 | 0.04 | 0.04 | 35 | 1014.9 | |
| 20260508185518 | 72 | 158 | 1.0 | 4.0 | 0.00 | 0.04 | 0.04 | 35 | 1015.3 |
| 20260508184518 | 71 | 315 | 1.0 | 4.0 | 0.00 | 0.04 | 0.04 | 34 | 1015.0 |
| 20260508183518 | 71 | 315 | 1.0 | 4.0 | 0.00 | 0.04 | 0.04 | 33 | 1015.4 |
| 20260508182518 | 70 | 0.0 | 2.0 | 0.00 | 0.04 | 0.04 | 36 | 1015.3 | |
| 20260508181518 | 70 | 135 | 2.0 | 3.0 | 0.00 | 0.04 | 0.04 | 38 | 1015.5 |
| 20260508180518 | 70 | 113 | 1.0 | 3.0 | 0.00 | 0.04 | 0.04 | 40 | 1016.2 |
| 20260508175518 | 71 | 0.0 | 1.0 | 0.00 | 0.04 | 0.04 | 38 | 1016.4 | |
| 20260508174518 | 70 | 0.0 | 1.0 | 0.00 | 0.04 | 0.04 | 40 | 1016.3 | |
| 20260508173520 | 69 | 293 | 1.0 | 3.0 | 0.00 | 0.04 | 0.04 | 40 | 1016.8 |
| 20260508172520 | 66 | 0 | 1.0 | 2.0 | 0.00 | 0.04 | 0.04 | 44 | 1016.6 |
| 20260508171521 | 66 | 315 | 1.0 | 4.0 | 0.00 | 0.04 | 0.04 | 43 | 1016.7 |
| 20260508170520 | 67 | 315 | 1.0 | 3.0 | 0.00 | 0.04 | 0.04 | 46 | 1017.2 |
| 20260508165520 | 66 | 0.0 | 2.0 | 0.00 | 0.04 | 0.04 | 48 | 1017.4 | |
| 20260508164520 | 64 | 0.0 | 1.0 | 0.00 | 0.04 | 0.04 | 51 | 1017.2 | |
| 20260508163520 | 63 | 158 | 1.0 | 3.0 | 0.00 | 0.04 | 0.04 | 54 | 1017.1 |
| 20260508162520 | 61 | 158 | 1.0 | 3.0 | 0.00 | 0.04 | 0.04 | 52 | 1016.7 |
| 20260508161520 | 61 | 135 | 1.0 | 4.0 | 0.00 | 0.04 | 0.04 | 56 | 1016.9 |
| 20260508160540 | 60 | 158 | 1.0 | 3.0 | 0.00 | 0.04 | 0.04 | 55 | 1017.0 |
| 20260508155540 | 60 | 0.0 | 3.0 | 0.00 | 0.04 | 0.04 | 57 | 1017.0 | |
| 20260508154520 | 58 | 0.0 | 1.0 | 0.00 | 0.04 | 0.04 | 63 | 1016.7 | |
| 20260508153520 | 57 | 158 | 1.0 | 3.0 | 0.00 | 0.04 | 0.04 | 66 | 1016.5 |
| 20260508152520 | 56 | 180 | 2.0 | 4.0 | 0.00 | 0.04 | 0.04 | 63 | 1016.2 |
| 20260508151520 | 54 | 135 | 1.0 | 4.0 | 0.00 | 0.04 | 0.04 | 66 | 1016.0 |
| 20260508150520 | 53 | 0.0 | 1.0 | 0.00 | 0.04 | 0.04 | 71 | 1015.7 | |
| 20260508145520 | 52 | 0.0 | 0.0 | 0.00 | 0.04 | 0.04 | 72 | 1015.7 | |
| 20260508144540 | 52 | 0.0 | 1.0 | 0.00 | 0.04 | 0.04 | 74 | 1015.7 | |
| 20260508143520 | 52 | 0.0 | 0.0 | 0.00 | 0.04 | 0.04 | 73 | 1015.8 | |
| 20260508142520 | 52 | 0.0 | 2.0 | 0.00 | 0.04 | 0.04 | 74 | 1015.8 | |
| 20260508141540 | 52 | 0.0 | 1.0 | 0.00 | 0.04 | 0.04 | 78 | 1015.8 | |
| 20260508140520 | 51 | 135 | 1.0 | 2.0 | 0.00 | 0.04 | 0.04 | 82 | 1016.3 |
| 20260508135520 | 49 | 0.0 | 1.0 | 0.00 | 0.04 | 0.04 | 89 | 1016.0 | |
| 20260508134520 | 48 | 0.0 | 0.0 | 0.00 | 0.04 | 0.04 | 91 | 1015.8 | |
| 20260508133520 | 47 | 0.0 | 0.0 | 0.00 | 0.04 | 0.04 | 92 | 1015.3 | |
| 20260508132520 | 47 | 0.0 | 0.0 | 0.00 | 0.04 | 0.04 | 92 | 1015.3 | |
| 20260508131520 | 46 | 0.0 | 2.0 | 0.00 | 0.04 | 0.04 | 91 | 1014.9 | |
| 20260508130520 | 46 | 0.0 | 1.0 | 0.00 | 0.04 | 0.04 | 93 | 1015.3 | |
| 20260508125520 | 46 | 0.0 | 0.0 | 0.00 | 0.04 | 0.04 | 93 | 1015.5 | |
| 20260508124520 | 46 | 0.0 | 1.0 | 0.01 | 0.04 | 0.04 | 93 | 1015.5 | |
| 20260508123520 | 46 | 0.0 | 0.0 | 0.02 | 0.04 | 0.04 | 93 | 1015.2 | |
| 20260508122520 | 46 | 0.0 | 0.0 | 0.04 | 0.04 | 0.04 | 92 | 1015.2 | |
| 20260508121520 | 46 | 0.0 | 0.0 | 0.04 | 0.04 | 0.04 | 91 | 1015.7 | |
| 20260508120540 | 46 | 0.0 | 0.0 | 0.04 | 0.04 | 0.04 | 89 | 1016.3 | |
| 20260508115520 | 47 | 0.0 | 2.0 | 0.04 | 0.04 | 0.04 | 88 | 1017.1 | |
| 20260508114520 | 47 | 315 | 2.0 | 5.0 | 0.03 | 0.03 | 0.03 | 87 | 1017.4 |
| 20260508113520 | 48 | 315 | 3.0 | 7.0 | 0.02 | 0.02 | 0.02 | 85 | 1017.7 |
| 20260508112520 | 47 | 0.0 | 1.0 | 0.00 | 0.00 | 0.00 | 90 | 1017.3 | |
| 20260508111540 | 46 | 0.0 | 0.0 | 0.00 | 0.00 | 0.00 | 90 | 1016.9 | |
| 20260508110520 | 46 | 0.0 | 0.0 | 0.00 | 0.00 | 0.00 | 91 | 1016.7 | |
| 20260508105520 | 46 | 0.0 | 0.0 | 0.00 | 0.00 | 0.00 | 89 | 1016.2 | |
| 20260508104540 | 46 | 0.0 | 1.0 | 0.00 | 0.00 | 0.00 | 92 | 1016.3 | |
| 20260508103540 | 46 | 0.0 | 0.0 | 0.00 | 0.00 | 0.00 | 91 | 1016.3 | |
| 20260508102520 | 46 | 0.0 | 0.0 | 0.00 | 0.00 | 0.00 | 90 | 1016.2 | |
| 20260508101519 | 47 | 0.0 | 0.0 | 0.00 | 0.00 | 0.00 | 90 | 1016.4 | |
| 20260508100520 | 47 | 0.0 | 0.0 | 0.00 | 0.00 | 0.00 | 89 | 1016.9 | |
| 20260508095520 | 48 | 0.0 | 0.0 | 0.00 | 0.00 | 0.00 | 88 | 1016.8 | |
| 20260508094519 | 48 | 0.0 | 0.0 | 0.00 | 0.00 | 0.00 | 87 | 1016.9 | |
| 20260508093520 | 48 | 0.0 | 0.0 | 0.00 | 0.00 | 0.00 | 86 | 1017.1 | |
| 20260508092519 | 48 | 0.0 | 1.0 | 0.00 | 0.00 | 0.00 | 86 | 1017.2 | |
| 20260508091539 | 48 | 0.0 | 1.0 | 0.00 | 0.00 | 0.00 | 86 | 1017.2 | |
| 20260508090520 | 48 | 0.0 | 2.0 | 0.00 | 0.00 | 0.00 | 86 | 1017.3 | |
| 20260508085520 | 48 | 0.0 | 1.0 | 0.00 | 0.00 | 0.00 | 89 | 1017.2 | |
| 20260508084519 | 47 | 0.0 | 0.0 | 0.00 | 0.00 | 0.00 | 90 | 1016.9 | |
| 20260508083539 | 47 | 0.0 | 0.0 | 0.00 | 0.00 | 0.00 | 88 | 1016.5 | |
| 20260508082519 | 48 | 0.0 | 0.0 | 0.00 | 0.00 | 0.00 | 88 | 1016.9 | |
| 20260508081519 | 48 | 0.0 | 0.0 | 0.00 | 0.00 | 0.00 | 87 | 1017.0 | |
| 20260508080519 | 48 | 0.0 | 0.0 | 0.00 | 0.00 | 0.00 | 86 | 1016.8 | |
| 20260508075539 | 48 | 0.0 | 0.0 | 0.00 | 0.00 | 0.00 | 87 | 1016.9 | |
| 20260508074519 | 49 | 0.0 | 0.0 | 0.00 | 0.00 | 0.00 | 85 | 1017.4 | |
| 20260508073539 | 50 | 0.0 | 0.0 | 0.00 | 0.00 | 0.00 | 84 | 1017.6 | |
| 20260508072520 | 50 | 0.0 | 0.0 | 0.00 | 0.00 | 0.00 | 81 | 1018.4 | |
| 20260508071519 | 51 | 0.0 | 0.0 | 0.00 | 0.00 | 0.00 | 77 | 1018.5 | |
| 20260508070520 | 51 | 0.0 | 0.0 | 0.00 | 0.00 | 0.00 | 75 | 1019.2 | |
| 20260508065520 | 51 | 0.0 | 1.0 | 0.00 | 0.00 | 0.00 | 74 | 1018.9 | |
| 20260508064519 | 51 | 315 | 1.0 | 5.0 | 0.00 | 0.00 | 0.00 | 73 | 1019.3 |
| 20260508063519 | 52 | 338 | 1.0 | 7.0 | 0.00 | 0.00 | 0.00 | 73 | 1018.9 |
| 20260508062519 | 52 | 315 | 1.0 | 2.0 | 0.00 | 0.00 | 0.00 | 72 | 1018.8 |